INTELSAT 37E (IS-37E) (42950 NORAD) Tracking and Keplerian Element Data

This shows tracking and keplerian element data for the satellite.

Feedback or suggestion? Click here.




ElementValue
Catalog42950
NameINTELSAT 37E (IS-37E)
Epoch Orbit425
Epoch Day316.90557087
Epoch Year2018
RAAN275.1817
Inclination0.0137
Eccentricity0.0002716
Argument of Perigee313.3914
Mean Anonmoly131.4308
Mean Motion1.00272939
Decay Rate-1.42E-06
L11 42950U 17059A 18316.90557087 -.00000142 00000-0 00000-0 0 9990
L22 42950 0.0137 275.1817 0002716 313.3914 131.4308 1.00272939 4258

Live tracking and technical data element details for INTELSAT 37E (IS-37E) (NORAD 42950). INTELSAT 37E (IS-37E) can be tracked NOW for your location showing map with azimuth and elevation plus other details from your city location.

Track the satellite on the map from your city or location and see movement details for azimuth, elevation, latitude, longitude, range, height, and movement on the map or in text.







IsCatalogInMostPopularTable: catalog: 42950, numindb: 255
Update: records affected: 1



GetName: 42950 INTELSAT 37E (IS-37E)

Hit Count: updated at: Wed, 14 Nov 2018 15:02:34 GMT